Enid Vance AFB, OK

8:10 PM CST on November 24, 2017 (GMT -0600)
Vance Air Force Base

Weather History for KEND - February, 2013

Change the Weather History Date:

Sunday, February 3, 2013

  Actual Average Record
Temperature  
Mean Temperature 44 °F -  
Max Temperature 60 °F 46 °F 64 °F (1999)
Min Temperature 27 °F 27 °F -5 °F (2011)
Degree Days  
Heating Degree Days 22    
Moisture  
Dew Point 28 °F    
Average Humidity 55    
Maximum Humidity 84    
Minimum Humidity 29    
Precipitation  
Precipitation 0.00 in - - ()
Sea Level Pressure  
Sea Level Pressure 30.14 in    
Wind  
Wind Speed 9 mph (South)    
Max Wind Speed 20 mph    
Max Gust Speed 25 mph    
Visibility 10 miles    
Events      
Averages and records for this station are not official NWS values.
T = Trace of Precipitation, MM = Missing Value Source: NWS Daily Summary

Daily Weather History Graph

Daily Weather History Graph

Search for Another Location

Airport or City:

Trip Planner

Search our weather history database for the weather conditions in past years. The results will help you decide how hot, cold, wet, or windy it might be!

Date:

Astronomy

Feb. 03, 2013 Rise Set
Actual Time 7:31 AM CST 6:00 PM CST
Civil Twilight 7:04 AM CST 6:27 PM CST
Nautical Twilight 6:33 AM CST 6:58 PM CST
Astronomical Twilight 6:03 AM CST 7:28 PM CST
Moon 12:59 AM CST (2/3) 11:39 AM CST (2/3)
Length of Visible Light 11h 23m
Length of Day
10h 29m
Waning Gibbous, 48% of the Moon is Illuminated
Feb 3
Waning Gibbous
Feb 10
New
Feb 17
First Quarter
Feb 25
Full
Mar 4
Last Quarter

Hourly Weather History & Observations

Time (CST) Temp. Windchill Dew Point Humidity Pressure Visibility Wind Dir Wind Speed Gust Speed Precip Events Conditions
12:55 AM 33.1 °F 26.1 °F 24.4 °F 71% 30.29 in 10.0 mi West 8.1 mph - N/A   Clear
1:55 AM 33.6 °F 28.4 °F 24.1 °F 68% 30.29 in 10.0 mi WNW 5.8 mph - N/A   Clear
2:55 AM 32.2 °F 26.7 °F 23.9 °F 72% 30.28 in 10.0 mi WNW 5.8 mph - N/A   Clear
3:55 AM 32.9 °F 27.5 °F 23.5 °F 68% 30.27 in 10.0 mi WNW 5.8 mph - N/A   Clear
4:55 AM 28.4 °F 22.2 °F 22.8 °F 80% 30.27 in 10.0 mi WNW 5.8 mph - N/A   Clear
5:55 AM 30.2 °F 26.7 °F 23.5 °F 76% 30.30 in 10.0 mi North 3.5 mph - N/A   Clear
6:55 AM 27.3 °F - 22.1 °F 81% 30.31 in 10.0 mi Calm Calm - N/A   Clear
7:55 AM 28.0 °F 24.2 °F 23.9 °F 84% 30.32 in 10.0 mi SW 3.5 mph - N/A   Clear
8:55 AM 38.3 °F - 29.3 °F 70% 30.32 in 10.0 mi Calm Calm - N/A   Clear
9:55 AM 46.4 °F 40.4 °F 26.6 °F 46% 30.29 in 10.0 mi East 13.8 mph - N/A   Mostly Cloudy
10:55 AM 48.2 °F - 28.4 °F 46% 30.27 in 10.0 mi ESE 10.4 mph - N/A   Mostly Cloudy
11:55 AM 51.8 °F - 28.4 °F 41% 30.24 in 10.0 mi ESE 13.8 mph - N/A   Mostly Cloudy
12:55 PM 55.4 °F - 26.6 °F 33% 30.17 in 10.0 mi SSE 15.0 mph - N/A   Mostly Cloudy
1:55 PM 57.2 °F - 26.6 °F 31% 30.13 in 10.0 mi SSE 17.3 mph 23.0 mph N/A   Mostly Cloudy
2:55 PM 60.8 °F - 28.4 °F 29% 30.08 in 10.0 mi South 19.6 mph 25.3 mph N/A   Mostly Cloudy
3:55 PM 58.8 °F - 29.5 °F 33% 30.04 in 10.0 mi South 16.1 mph 24.2 mph N/A   Clear
4:55 PM 57.2 °F - 29.8 °F 35% 30.03 in 10.0 mi South 15.0 mph - N/A   Clear
5:55 PM 54.3 °F - 31.3 °F 42% 30.00 in 10.0 mi SSE 12.7 mph - N/A   Clear
6:55 PM 52.3 °F - 31.8 °F 46% 29.98 in 10.0 mi SSE 13.8 mph - N/A   Clear
7:55 PM 51.4 °F - 31.5 °F 46% 29.97 in 10.0 mi SSE 13.8 mph - N/A   Clear
8:55 PM 49.8 °F - 32.4 °F 51% 29.94 in 10.0 mi SSE 11.5 mph - N/A   Clear
9:55 PM 48.0 °F - 33.4 °F 57% 29.91 in 10.0 mi SE 8.1 mph - N/A   Clear
10:55 PM 48.7 °F - 33.3 °F 55% 29.88 in 10.0 mi SSE 11.5 mph - N/A   Clear
11:55 PM 48.9 °F - 32.4 °F 53% 29.87 in 10.0 mi SSE 9.2 mph - N/A   Clear